| time (UTC) | temp F | wind direction | speed MPH | gust MPH | rain 1hr in | rain 24hr in | rain mn in | humidity % | barometer mb |
| 20260502194512 | 44 | 262 | 8.0 | 15.0 | 0.00 | 0.00 | 0.00 | 62 | 1016.7 |
| 20260502194051 | 45 | 246 | 7.0 | 15.0 | 0.00 | 0.00 | 0.00 | 63 | 1016.7 |
| 20260502193537 | 45 | 241 | 6.0 | 12.0 | 0.00 | 0.00 | 0.00 | 62 | 1016.7 |
| 20260502193029 | 45 | 273 | 5.0 | 16.0 | 0.00 | 0.00 | 0.00 | 63 | 1016.8 |
| 20260502192515 | 44 | 309 | 8.0 | 16.0 | 0.00 | 0.00 | 0.00 | 61 | 1016.9 |
| 20260502192014 | 44 | 252 | 8.0 | 15.0 | 0.00 | 0.00 | 0.00 | 59 | 1016.9 |
| 20260502191503 | 44 | 284 | 7.0 | 16.0 | 0.00 | 0.00 | 0.00 | 58 | 1016.9 |
| 20260502191017 | 45 | 246 | 7.0 | 16.0 | 0.00 | 0.00 | 0.00 | 59 | 1017.0 |
| 20260502190519 | 44 | 258 | 7.0 | 20.0 | 0.00 | 0.00 | 0.00 | 60 | 1017.0 |
| 20260502190029 | 44 | 238 | 7.0 | 20.0 | 0.00 | 0.00 | 0.00 | 59 | 1017.0 |
| 20260502185535 | 45 | 240 | 7.0 | 17.0 | 0.00 | 0.00 | 0.00 | 57 | 1017.0 |
| 20260502185048 | 45 | 267 | 7.0 | 17.0 | 0.00 | 0.00 | 0.00 | 54 | 1017.0 |
| 20260502184529 | 45 | 241 | 5.0 | 16.0 | 0.00 | 0.00 | 0.00 | 53 | 1016.9 |
| 20260502184039 | 46 | 259 | 7.0 | 15.0 | 0.00 | 0.00 | 0.00 | 51 | 1017.0 |
| 20260502183543 | 46 | 269 | 5.0 | 12.0 | 0.00 | 0.00 | 0.00 | 52 | 1016.9 |
| 20260502183103 | 46 | 255 | 5.0 | 10.0 | 0.00 | 0.00 | 0.00 | 52 | 1016.9 |
| 20260502182538 | 46 | 277 | 4.0 | 10.0 | 0.00 | 0.00 | 0.00 | 54 | 1016.9 |
| 20260502182048 | 45 | 240 | 6.0 | 11.0 | 0.00 | 0.00 | 0.00 | 55 | 1017.0 |
| 20260502181558 | 45 | 248 | 6.0 | 12.0 | 0.00 | 0.00 | 0.00 | 50 | 1017.0 |
| 20260502181101 | 46 | 242 | 5.0 | 12.0 | 0.00 | 0.00 | 0.00 | 51 | 1016.9 |
| 20260502180507 | 46 | 232 | 2.0 | 11.0 | 0.00 | 0.00 | 0.00 | 56 | 1017.0 |
| 20260502164046 | 42 | 333 | 3.0 | 8.0 | 0.00 | 0.05 | 0.00 | 66 | 1017.4 |
| 20260502163549 | 42 | 273 | 3.0 | 8.0 | 0.00 | 0.05 | 0.00 | 66 | 1017.4 |
| 20260502163109 | 42 | 281 | 1.0 | 8.0 | 0.00 | 0.05 | 0.00 | 66 | 1017.5 |
| 20260502162505 | 42 | 253 | 2.0 | 8.0 | 0.00 | 0.05 | 0.00 | 69 | 1017.5 |
| 20260502162019 | 41 | 257 | 3.0 | 10.0 | 0.00 | 0.05 | 0.00 | 66 | 1017.4 |
| 20260502161527 | 42 | 268 | 2.0 | 7.0 | 0.00 | 0.05 | 0.00 | 68 | 1017.5 |
| 20260502161028 | 42 | 296 | 2.0 | 7.0 | 0.00 | 0.05 | 0.00 | 70 | 1017.6 |
| 20260502160516 | 42 | 232 | 2.0 | 6.0 | 0.00 | 0.05 | 0.00 | 67 | 1017.5 |
| 20260502152043 | 41 | 279 | 2.0 | 5.0 | 0.00 | 0.07 | 0.00 | 64 | 1017.5 |
| 20260502151554 | 42 | 312 | 2.0 | 6.0 | 0.00 | 0.07 | 0.00 | 66 | 1017.5 |
| 20260502151103 | 42 | 250 | 1.0 | 8.0 | 0.00 | 0.07 | 0.00 | 64 | 1017.4 |
| 20260502150506 | 41 | 237 | 3.0 | 10.0 | 0.00 | 0.07 | 0.00 | 67 | 1017.3 |
| 20260502130556 | 39 | 360 | 3.0 | 5.0 | 0.00 | 0.16 | 0.00 | 73 | 1017.5 |
| 20260502123532 | 38 | 309 | 1.0 | 3.0 | 0.00 | 0.16 | 0.00 | 73 | 1017.6 |
| 20260502123054 | 38 | 308 | 1.0 | 4.0 | 0.00 | 0.16 | 0.00 | 73 | 1017.6 |
| 20260502122518 | 38 | 332 | 2.0 | 4.0 | 0.00 | 0.16 | 0.00 | 73 | 1017.6 |
| 20260502122016 | 38 | 333 | 1.0 | 4.0 | 0.00 | 0.16 | 0.00 | 73 | 1017.6 |
| 20260502121532 | 38 | 334 | 0.0 | 2.0 | 0.00 | 0.16 | 0.00 | 75 | 1017.6 |
| 20260502121010 | 38 | 334 | 1.0 | 4.0 | 0.00 | 0.16 | 0.00 | 74 | 1017.5 |
| 20260502120526 | 38 | 334 | 0.0 | 4.0 | 0.00 | 0.16 | 0.00 | 74 | 1017.5 |
| 20260502115527 | 37 | 334 | 0.0 | 5.0 | 0.00 | 0.16 | 0.00 | 76 | 1017.5 |
| 20260502115026 | 38 | 344 | 1.0 | 2.0 | 0.00 | 0.16 | 0.00 | 79 | 1017.4 |
| 20260502114532 | 37 | 344 | 0.0 | 3.0 | 0.00 | 0.16 | 0.00 | 78 | 1017.4 |
| 20260502114045 | 37 | 344 | 0.0 | 3.0 | 0.00 | 0.16 | 0.00 | 78 | 1017.3 |
| 20260502113532 | 37 | 344 | 0.0 | 1.0 | 0.00 | 0.16 | 0.00 | 78 | 1017.3 |
| 20260502113042 | 37 | 345 | 0.0 | 2.0 | 0.00 | 0.16 | 0.00 | 78 | 1017.3 |
| 20260502112515 | 37 | 345 | 0.0 | 2.0 | 0.00 | 0.16 | 0.00 | 78 | 1017.2 |
| 20260502112028 | 37 | 345 | 0.0 | 2.0 | 0.00 | 0.16 | 0.00 | 79 | 1017.1 |
| 20260502111541 | 37 | 345 | 0.0 | 4.0 | 0.00 | 0.16 | 0.00 | 80 | 1017.1 |
| 20260502111008 | 36 | 346 | 1.0 | 4.0 | 0.00 | 0.16 | 0.00 | 81 | 1017.0 |
| 20260502110524 | 36 | 345 | 0.0 | 1.0 | 0.00 | 0.16 | 0.00 | 82 | 1017.1 |
| 20260502110030 | 36 | 346 | 0.0 | 3.0 | 0.00 | 0.16 | 0.00 | 83 | 1017.1 |
| 20260502105538 | 36 | 346 | 0.0 | 3.0 | 0.00 | 0.16 | 0.00 | 83 | 1017.0 |
| 20260502105037 | 36 | 5 | 0.0 | 3.0 | 0.00 | 0.16 | 0.00 | 85 | 1017.0 |
| 20260502104527 | 36 | 128 | 0.0 | 2.0 | 0.00 | 0.16 | 0.00 | 86 | 1016.9 |
| 20260502104020 | 36 | 128 | 0.0 | 3.0 | 0.00 | 0.16 | 0.00 | 87 | 1016.9 |
| 20260502103520 | 36 | 128 | 0.0 | 3.0 | 0.00 | 0.16 | 0.00 | 88 | 1016.9 |
| 20260502103027 | 36 | 129 | 0.0 | 2.0 | 0.00 | 0.16 | 0.00 | 88 | 1016.9 |
| 20260502102532 | 36 | 129 | 0.0 | 1.0 | 0.00 | 0.16 | 0.00 | 88 | 1016.9 |
| 20260502102046 | 36 | 129 | 0.0 | 1.0 | 0.00 | 0.16 | 0.00 | 88 | 1016.8 |
| 20260502101553 | 36 | 129 | 0.0 | 1.0 | 0.00 | 0.16 | 0.00 | 89 | 1016.8 |
| 20260502101009 | 36 | 129 | 0.0 | 2.0 | 0.00 | 0.16 | 0.00 | 88 | 1016.8 |
| 20260502100518 | 36 | 129 | 0.0 | 2.0 | 0.00 | 0.16 | 0.00 | 88 | 1016.8 |
| 20260502091521 | 36 | 129 | 0.0 | 0.0 | 0.00 | 0.16 | 0.00 | 85 | 1016.4 |
| 20260502091021 | 37 | 129 | 0.0 | 0.0 | 0.00 | 0.16 | 0.00 | 85 | 1016.4 |
| 20260502090513 | 37 | 129 | 0.0 | 0.0 | 0.00 | 0.16 | 0.00 | 84 | 1016.4 |
| 20260502071059 | 37 | 173 | 0.0 | 0.0 | 0.00 | 0.16 | 0.00 | 84 | 1015.6 |
| 20260502070507 | 37 | 173 | 0.0 | 0.0 | 0.00 | 0.16 | 0.00 | 84 | 1015.6 |
| 20260502070022 | 37 | 173 | 0.0 | 0.0 | 0.00 | 0.16 | 0.00 | 85 | 1015.6 |
| 20260502065525 | 37 | 173 | 0.0 | 0.0 | 0.00 | 0.16 | 0.00 | 86 | 1015.6 |
| 20260502065101 | 37 | 173 | 0.0 | 0.0 | 0.00 | 0.16 | 0.00 | 86 | 1015.7 |
| 20260502064509 | 37 | 173 | 0.0 | 0.0 | 0.00 | 0.16 | 0.00 | 85 | 1015.7 |
| 20260502064049 | 37 | 173 | 0.0 | 0.0 | 0.00 | 0.16 | 0.00 | 85 | 1015.8 |
| 20260502063537 | 37 | 173 | 0.0 | 0.0 | 0.00 | 0.16 | 0.00 | 85 | 1016.0 |
| 20260502063051 | 37 | 173 | 0.0 | 0.0 | 0.00 | 0.16 | 0.00 | 85 | 1015.9 |
| 20260502062557 | 37 | 173 | 0.0 | 0.0 | 0.00 | 0.16 | 0.00 | 86 | 1015.9 |
| 20260502062044 | 37 | 173 | 0.0 | 0.0 | 0.00 | 0.16 | 0.00 | 85 | 1015.9 |
| 20260502061547 | 37 | 173 | 0.0 | 0.0 | 0.00 | 0.16 | 0.00 | 85 | 1016.1 |
| 20260502061055 | 37 | 173 | 0.0 | 0.0 | 0.00 | 0.16 | 0.00 | 85 | 1016.1 |
| 20260502060544 | 37 | 173 | 0.0 | 0.0 | 0.00 | 0.16 | 0.00 | 85 | 1016.1 |
| 20260502060054 | 37 | 173 | 0.0 | 2.0 | 0.00 | 0.16 | 0.00 | 84 | 1016.1 |
| 20260502055541 | 37 | 173 | 0.0 | 2.0 | 0.00 | 0.16 | 0.00 | 84 | 1016.1 |
| 20260502055058 | 37 | 173 | 0.0 | 3.0 | 0.00 | 0.16 | 0.00 | 83 | 1016.2 |
| 20260502054558 | 37 | 173 | 0.0 | 3.0 | 0.00 | 0.16 | 0.00 | 83 | 1016.2 |
| 20260502054018 | 37 | 207 | 1.0 | 2.0 | 0.00 | 0.16 | 0.00 | 84 | 1016.3 |
| 20260502053521 | 37 | 207 | 0.0 | 2.0 | 0.00 | 0.16 | 0.00 | 84 | 1016.4 |
| 20260502053032 | 37 | 207 | 1.0 | 3.0 | 0.00 | 0.16 | 0.00 | 84 | 1016.4 |
| 20260502052537 | 37 | 207 | 0.0 | 3.0 | 0.00 | 0.16 | 0.00 | 84 | 1016.5 |
| 20260502052051 | 37 | 207 | 0.0 | 2.0 | 0.00 | 0.16 | 0.00 | 83 | 1016.4 |
| 20260502051601 | 37 | 207 | 0.0 | 4.0 | 0.00 | 0.16 | 0.00 | 83 | 1016.4 |
| 20260502051059 | 37 | 207 | 1.0 | 4.0 | 0.00 | 0.16 | 0.00 | 82 | 1016.4 |
| 20260502050515 | 37 | 209 | 1.0 | 2.0 | 0.00 | 0.16 | 0.00 | 82 | 1016.4 |
| 20260502050016 | 37 | 209 | 1.0 | 3.0 | 0.00 | 0.16 | 0.00 | 81 | 1016.3 |
| 20260502045532 | 37 | 209 | 1.0 | 3.0 | 0.00 | 0.16 | 0.00 | 81 | 1016.3 |
| 20260502045004 | 37 | 262 | 0.0 | 4.0 | 0.00 | 0.16 | 0.00 | 82 | 1016.2 |
| 20260502044511 | 37 | 269 | 0.0 | 4.0 | 0.00 | 0.16 | 0.00 | 83 | 1016.3 |
| 20260502044103 | 37 | 259 | 0.0 | 4.0 | 0.00 | 0.16 | 0.00 | 85 | 1016.3 |
| 20260502043551 | 37 | 230 | 0.0 | 2.0 | 0.00 | 0.16 | 0.00 | 85 | 1016.3 |
| 20260502043045 | 37 | 230 | 0.0 | 3.0 | 0.00 | 0.16 | 0.00 | 86 | 1016.2 |
| 20260502042525 | 37 | 230 | 0.0 | 4.0 | 0.00 | 0.16 | 0.00 | 87 | 1016.1 |
| 20260502042029 | 37 | 200 | 2.0 | 4.0 | 0.00 | 0.16 | 0.00 | 87 | 1016.1 |
| 20260502041535 | 37 | 225 | 1.0 | 2.0 | 0.00 | 0.16 | 0.00 | 88 | 1016.0 |
| 20260502041014 | 37 | 225 | 1.0 | 3.0 | 0.00 | 0.16 | 0.00 | 88 | 1016.0 |
| 20260502040559 | 37 | 225 | 1.0 | 3.0 | 0.00 | 0.16 | 0.00 | 89 | 1015.9 |
| 20260502040504 | 37 | 225 | 1.0 | 3.0 | 0.00 | 0.16 | 0.00 | 89 | 1015.9 |
| 20260502040045 | 37 | 234 | 1.0 | 3.0 | 0.00 | 0.16 | 0.16 | 89 | 1015.9 |
| 20260502035548 | 37 | 234 | 0.0 | 3.0 | 0.00 | 0.16 | 0.16 | 89 | 1015.8 |
| 20260502035054 | 37 | 234 | 1.0 | 3.0 | 0.00 | 0.16 | 0.16 | 89 | 1015.7 |
| 20260502034544 | 37 | 234 | 1.0 | 2.0 | 0.00 | 0.16 | 0.16 | 89 | 1015.7 |
| 20260502034052 | 37 | 234 | 0.0 | 2.0 | 0.00 | 0.16 | 0.16 | 89 | 1015.7 |
| 20260502033505 | 37 | 234 | 0.0 | 2.0 | 0.00 | 0.16 | 0.16 | 89 | 1015.5 |
| 20260502033054 | 37 | 234 | 1.0 | 2.0 | 0.00 | 0.16 | 0.16 | 89 | 1015.6 |
| 20260502032507 | 37 | 234 | 0.0 | 2.0 | 0.00 | 0.16 | 0.16 | 88 | 1015.4 |
| 20260502032021 | 38 | 234 | 0.0 | 2.0 | 0.00 | 0.16 | 0.16 | 88 | 1015.5 |
| 20260502031528 | 38 | 234 | 0.0 | 2.0 | 0.00 | 0.16 | 0.16 | 88 | 1015.4 |
| 20260502031036 | 38 | 234 | 0.0 | 2.0 | 0.00 | 0.16 | 0.16 | 87 | 1015.6 |
| 20260502030537 | 39 | 234 | 0.0 | 2.0 | 0.00 | 0.16 | 0.16 | 87 | 1015.6 |
| 20260502030026 | 39 | 234 | 0.0 | 3.0 | 0.00 | 0.16 | 0.16 | 87 | 1015.5 |
| 20260502025525 | 39 | 234 | 1.0 | 3.0 | 0.00 | 0.16 | 0.16 | 87 | 1015.4 |
| 20260502025038 | 39 | 240 | 0.0 | 2.0 | 0.00 | 0.16 | 0.16 | 87 | 1015.4 |
| 20260502024523 | 39 | 240 | 0.0 | 2.0 | 0.00 | 0.16 | 0.16 | 87 | 1015.3 |
| 20260502024028 | 39 | 240 | 0.0 | 2.0 | 0.00 | 0.16 | 0.16 | 87 | 1015.4 |
| 20260502023537 | 40 | 240 | 0.0 | 3.0 | 0.00 | 0.16 | 0.16 | 86 | 1015.3 |
| 20260502023044 | 40 | 240 | 0.0 | 3.0 | 0.00 | 0.16 | 0.16 | 86 | 1015.3 |
| 20260502022532 | 40 | 240 | 1.0 | 2.0 | 0.00 | 0.16 | 0.16 | 86 | 1015.4 |
| 20260502022039 | 40 | 240 | 1.0 | 2.0 | 0.00 | 0.16 | 0.16 | 85 | 1015.4 |
| 20260502021545 | 40 | 240 | 0.0 | 2.0 | 0.00 | 0.16 | 0.16 | 85 | 1015.4 |
| 20260502021041 | 40 | 240 | 0.0 | 1.0 | 0.00 | 0.16 | 0.16 | 84 | 1015.4 |
| 20260502020547 | 41 | 240 | 0.0 | 1.0 | 0.00 | 0.16 | 0.16 | 84 | 1015.4 |
| 20260502020049 | 41 | 240 | 0.0 | 3.0 | 0.00 | 0.16 | 0.16 | 84 | 1015.4 |
| 20260502015559 | 41 | 240 | 1.0 | 5.0 | 0.00 | 0.16 | 0.16 | 83 | 1015.3 |
| 20260502015502 | 41 | 240 | 1.0 | 5.0 | 0.00 | 0.16 | 0.16 | 83 | 1015.3 |
| 20260502015050 | 41 | 242 | 2.0 | 7.0 | 0.00 | 0.16 | 0.16 | 84 | 1015.3 |
| 20260502014557 | 41 | 250 | 1.0 | 7.0 | 0.00 | 0.16 | 0.16 | 84 | 1015.3 |
| 20260502014049 | 41 | 250 | 2.0 | 5.0 | 0.00 | 0.16 | 0.16 | 84 | 1015.2 |
| 20260502013531 | 41 | 239 | 2.0 | 4.0 | 0.00 | 0.16 | 0.16 | 84 | 1015.2 |
| 20260502013035 | 42 | 215 | 2.0 | 4.0 | 0.00 | 0.16 | 0.16 | 84 | 1015.1 |
| 20260502012543 | 41 | 184 | 1.0 | 4.0 | 0.00 | 0.16 | 0.16 | 83 | 1015.1 |
| 20260502012048 | 42 | 243 | 2.0 | 5.0 | 0.00 | 0.16 | 0.16 | 83 | 1015.0 |
| 20260502011556 | 42 | 248 | 1.0 | 7.0 | 0.00 | 0.16 | 0.16 | 84 | 1014.9 |
| 20260502011004 | 42 | 229 | 2.0 | 7.0 | 0.00 | 0.16 | 0.16 | 83 | 1014.9 |
| 20260502010521 | 42 | 241 | 2.0 | 7.0 | 0.00 | 0.16 | 0.16 | 83 | 1014.9 |
| 20260502010031 | 42 | 236 | 2.0 | 6.0 | 0.00 | 0.16 | 0.16 | 83 | 1014.9 |
| 20260502005540 | 42 | 257 | 3.0 | 9.0 | 0.00 | 0.16 | 0.16 | 83 | 1014.8 |
| 20260502005051 | 42 | 242 | 3.0 | 8.0 | 0.00 | 0.16 | 0.16 | 83 | 1014.8 |
| 20260502004602 | 42 | 259 | 2.0 | 7.0 | 0.00 | 0.16 | 0.16 | 83 | 1014.7 |
| 20260502004050 | 42 | 243 | 2.0 | 7.0 | 0.00 | 0.16 | 0.16 | 83 | 1014.6 |
| 20260502003557 | 42 | 238 | 3.0 | 7.0 | 0.00 | 0.16 | 0.16 | 81 | 1014.6 |
| 20260502003002 | 43 | 254 | 3.0 | 7.0 | 0.00 | 0.16 | 0.16 | 81 | 1014.5 |
| 20260502002517 | 43 | 243 | 2.0 | 7.0 | 0.00 | 0.16 | 0.16 | 82 | 1014.4 |
| 20260502002027 | 43 | 256 | 2.0 | 5.0 | 0.00 | 0.16 | 0.16 | 82 | 1014.3 |
| 20260502001509 | 43 | 241 | 2.0 | 5.0 | 0.00 | 0.16 | 0.16 | 81 | 1014.2 |
| 20260502001017 | 43 | 246 | 3.0 | 8.0 | 0.00 | 0.16 | 0.16 | 81 | 1014.2 |
| 20260502000535 | 43 | 263 | 3.0 | 8.0 | 0.00 | 0.16 | 0.16 | 81 | 1014.2 |
| 20260502000039 | 43 | 244 | 2.0 | 6.0 | 0.00 | 0.16 | 0.16 | 81 | 1014.2 |
| 20260501235547 | 43 | 238 | 3.0 | 6.0 | 0.00 | 0.16 | 0.16 | 81 | 1014.1 |
| 20260501235053 | 43 | 231 | 3.0 | 8.0 | 0.00 | 0.16 | 0.16 | 82 | 1014.0 |
| 20260501234602 | 43 | 249 | 3.0 | 8.0 | 0.00 | 0.16 | 0.16 | 82 | 1013.9 |
| 20260501234504 | 43 | 244 | 3.0 | 7.0 | 0.00 | 0.16 | 0.16 | 82 | 1013.9 |
| 20260501234007 | 43 | 248 | 2.0 | 7.0 | 0.00 | 0.16 | 0.16 | 82 | 1013.8 |
| 20260501233555 | 43 | 232 | 3.0 | 8.0 | 0.00 | 0.16 | 0.16 | 81 | 1013.7 |
| 20260501233044 | 43 | 245 | 3.0 | 8.0 | 0.00 | 0.16 | 0.16 | 81 | 1013.7 |
| 20260501232552 | 43 | 267 | 2.0 | 7.0 | 0.00 | 0.16 | 0.16 | 81 | 1013.7 |
| 20260501232042 | 43 | 255 | 1.0 | 7.0 | 0.00 | 0.16 | 0.16 | 81 | 1013.6 |
| 20260501231550 | 43 | 236 | 2.0 | 5.0 | 0.00 | 0.16 | 0.16 | 81 | 1013.6 |
| 20260501231041 | 44 | 236 | 2.0 | 5.0 | 0.00 | 0.16 | 0.16 | 81 | 1013.6 |
| 20260501230549 | 44 | 283 | 1.0 | 6.0 | 0.00 | 0.16 | 0.16 | 81 | 1013.5 |
| 20260501230107 | 44 | 266 | 1.0 | 6.0 | 0.00 | 0.16 | 0.16 | 80 | 1013.4 |
| 20260501225551 | 44 | 252 | 2.0 | 6.0 | 0.00 | 0.16 | 0.16 | 78 | 1013.3 |
| 20260501225101 | 44 | 258 | 3.0 | 6.0 | 0.00 | 0.16 | 0.16 | 78 | 1013.3 |
| 20260501224509 | 45 | 275 | 1.0 | 4.0 | 0.00 | 0.16 | 0.16 | 78 | 1013.4 |
| 20260501224018 | 45 | 247 | 1.0 | 4.0 | 0.00 | 0.16 | 0.16 | 76 | 1013.4 |
| 20260501223523 | 45 | 209 | 0.0 | 2.0 | 0.00 | 0.16 | 0.16 | 75 | 1013.4 |
| 20260501223035 | 45 | 194 | 0.0 | 2.0 | 0.00 | 0.16 | 0.16 | 73 | 1013.2 |
| 20260501222545 | 45 | 194 | 0.0 | 3.0 | 0.00 | 0.16 | 0.16 | 74 | 1013.2 |
| 20260501222045 | 45 | 194 | 1.0 | 3.0 | 0.00 | 0.16 | 0.16 | 73 | 1013.2 |
| 20260501221557 | 45 | 142 | 1.0 | 2.0 | 0.00 | 0.16 | 0.16 | 74 | 1013.0 |
| 20260501221035 | 45 | 142 | 0.0 | 2.0 | 0.00 | 0.16 | 0.16 | 76 | 1013.0 |
| 20260501220541 | 45 | 142 | 0.0 | 2.0 | 0.00 | 0.16 | 0.16 | 78 | 1012.9 |
| 20260501220047 | 44 | 142 | 0.0 | 2.0 | 0.00 | 0.16 | 0.16 | 79 | 1012.9 |
| 20260501215530 | 44 | 141 | 1.0 | 4.0 | 0.00 | 0.16 | 0.16 | 81 | 1012.8 |
| 20260501215041 | 43 | 141 | 1.0 | 5.0 | 0.00 | 0.16 | 0.16 | 81 | 1012.8 |
| 20260501214553 | 43 | 360 | 3.0 | 5.0 | 0.00 | 0.16 | 0.16 | 81 | 1012.8 |
| 20260501214057 | 43 | 360 | 1.0 | 3.0 | 0.00 | 0.16 | 0.16 | 83 | 1012.8 |
| 20260501213505 | 43 | 360 | 1.0 | 3.0 | 0.00 | 0.16 | 0.16 | 84 | 1012.9 |
| 20260501213017 | 42 | 360 | 1.0 | 3.0 | 0.00 | 0.16 | 0.16 | 85 | 1012.9 |
| 20260501212519 | 42 | 360 | 1.0 | 4.0 | 0.00 | 0.16 | 0.16 | 85 | 1012.9 |
| 20260501212034 | 42 | 360 | 1.0 | 4.0 | 0.00 | 0.16 | 0.16 | 85 | 1012.9 |
| 20260501211535 | 42 | 360 | 1.0 | 4.0 | 0.00 | 0.16 | 0.16 | 85 | 1012.9 |
| 20260501211042 | 41 | 360 | 1.0 | 5.0 | 0.00 | 0.16 | 0.16 | 85 | 1012.9 |
| 20260501210552 | 41 | 360 | 2.0 | 6.0 | 0.00 | 0.16 | 0.16 | 85 | 1012.8 |
| 20260501210059 | 41 | 360 | 3.0 | 6.0 | 0.00 | 0.16 | 0.16 | 85 | 1012.8 |
| 20260501205509 | 41 | 360 | 3.0 | 5.0 | 0.00 | 0.16 | 0.16 | 85 | 1012.8 |
| 20260501205103 | 41 | 360 | 3.0 | 5.0 | 0.00 | 0.16 | 0.16 | 86 | 1012.8 |
| 20260501204510 | 40 | 360 | 3.0 | 5.0 | 0.00 | 0.16 | 0.16 | 85 | 1013.0 |
| 20260501204021 | 40 | 120 | 3.0 | 6.0 | 0.00 | 0.16 | 0.16 | 84 | 1013.0 |
| 20260501203524 | 40 | 360 | 2.0 | 5.0 | 0.00 | 0.16 | 0.16 | 84 | 1013.0 |
| 20260501203029 | 40 | 360 | 2.0 | 5.0 | 0.00 | 0.16 | 0.16 | 84 | 1013.0 |
| 20260501202534 | 40 | 360 | 2.0 | 4.0 | 0.00 | 0.16 | 0.16 | 85 | 1013.1 |
| 20260501202047 | 40 | 360 | 0.0 | 2.0 | 0.00 | 0.16 | 0.16 | 85 | 1013.1 |
| 20260501201558 | 40 | 325 | 0.0 | 4.0 | 0.00 | 0.16 | 0.16 | 85 | 1013.2 |
| 20260501201058 | 40 | 360 | 1.0 | 5.0 | 0.00 | 0.16 | 0.16 | 86 | 1013.2 |
| 20260501200509 | 40 | 360 | 1.0 | 6.0 | 0.00 | 0.16 | 0.16 | 87 | 1013.2 |
| 20260501200011 | 40 | 360 | 3.0 | 6.0 | 0.00 | 0.16 | 0.16 | 88 | 1013.2 |
| 20260501195528 | 40 | 101 | 1.0 | 4.0 | 0.00 | 0.16 | 0.16 | 90 | 1013.2 |
| 20260501195053 | 40 | 360 | 0.0 | 3.0 | 0.00 | 0.16 | 0.16 | 90 | 1013.3 |